Content
SEND FEEDBACK

Daily
Averages
Monthly
Summary
United States of America

SYRACUSE, NEW YORK


Home > North America > United States > New York
Elevation: 421 feet     Latitude: 43 07N     Longitude: 076 07W

WEATHER
 
SELECT A DAY
Number of Records: 223,832;   Date Range: 1/1/95 - 7/26/14
 
SHARE

PRINT THIS DATA

[ ← Previous Day ]
WEATHER ALMANAC - APRIL 1, 2013
[ Next Day → ]
[ °C ]   °F
Weather ElementAverageHighLow
Temperature38.3 °F45 °F (5:54 am)30.6 °F (10:54 pm)
Dewpoint28.5 °F39.9 °F (6:54 am)15.1 °F (7:54 pm)
Humidity69.6 %89 % (6:54 am)42 % (2:54 pm)
Barometer29.71 in29.91 in (9:54 pm)29.57 in (3:54 am)
Wind Speed13.9 mph24.2 mph (6:54 pm)
Wind Gust36.8 mph (6:54 pm)
Weather ElementAverage
Visibility8.5 mi
Wind DirectionWSW (249.1 °)

Weather ElementTotal
Precipitation0.19 in
Heating Degree Days27.2 (Base 65)
Averaged from 34 records on April 1, 2013
WEATHER CONDITIONS BREAKOUT
WIND DIRECTION BREAKOUT
WEATHER BY HOUR - APRIL 1, 2013
[ °C ]   °F
Local TimeTemperatureDewpointHumidityBarometerVisibilityWind DirectionWind SpeedGust SpeedPrecipitationEventsConditions
1:54 AM42.1 °F37.9 °F85 %29.60 in10.0 miESE (120°)3.5 mphScattered Clouds
2:54 AM39.9 °F36.0 °F86 %29.58 in9.0 miSE (140°)3.5 mphScattered Clouds
3:54 AM39.9 °F36.0 °F86 %29.57 in10.0 miEast (90°)3.5 mphOvercast
4:54 AM42.1 °F37.0 °F82 %29.57 in10.0 miSW (220°)6.9 mph0.00 inOvercast
5:54 AM45.0 °F39.0 °F80 %29.57 in9.0 miSSW (210°)6.9 mph0.00 inRainLight Rain
6:02 AM42.8 °F39.2 °F87 %29.57 in10.0 miSW (230°)5.8 mph0.00 inRainLight Rain
6:54 AM43.0 °F39.9 °F89 %29.58 in6.0 miWest (270°)4.6 mph0.08 inRainLight Rain
7:12 AM42.8 °F39.2 °F87 %29.58 in9.0 miCalm0.00 inRainLight Rain
7:54 AM43.0 °F37.9 °F82 %29.60 in4.0 miWest (280°)10.4 mph0.05 inRainLight Rain
8:12 AM42.8 °F37.4 °F81 %29.60 in6.0 miWest (270°)9.2 mph0.01 inRainLight Rain
8:54 AM43.0 °F37.0 °F80 %29.60 in10.0 miWSW (240°)12.7 mph0.02 inOvercast
9:01 AM44.6 °F37.4 °F76 %29.61 in10.0 miWest (260°)15.0 mph21.9 mphOvercast
9:10 AM44.6 °F37.4 °F76 %29.61 in10.0 miWest (260°)19.6 mphOvercast
9:32 AM37.4 °F32.0 °F81 %29.64 in10.0 miWNW (290°)21.9 mph34.5 mph0.00 inRain-SnowLight Rain
9:54 AM37.0 °F32.0 °F82 %29.66 in10.0 miWNW (290°)17.3 mph32.2 mph0.00 inOvercast
10:16 AM35.6 °F30.2 °F81 %29.67 in2.5 miWest (280°)18.4 mph27.6 mph0.00 inSnowLight Snow
10:26 AM35.6 °F30.2 °F81 %29.68 in1.8 miWest (270°)16.1 mph21.9 mph0.00 inSnowLight Snow
10:33 AM35.6 °F30.2 °F81 %29.68 in2.0 miWest (280°)15.0 mph24.2 mph0.00 inSnowLight Snow
10:41 AM35.6 °F30.2 °F81 %29.69 in4.0 miWest (270°)12.7 mph24.2 mph0.01 inSnowLight Snow
10:52 AM35.6 °F28.4 °F75 %29.70 in9.0 miWest (280°)21.9 mph28.8 mph0.01 inSnowLight Snow
10:54 AM36.0 °F28.0 °F73 %29.70 in9.0 miWest (280°)20.7 mph28.8 mph0.01 inSnowLight Snow
11:54 AM37.9 °F25.0 °F60 %29.73 in10.0 miWNW (290°)18.4 mph27.6 mph0.00 inOvercast
12:54 PM38.1 °F23.5 °F56 %29.75 in10.0 miWNW (300°)19.6 mph31.1 mph0.00 inSnowLight Snow
1:54 PM37.0 °F20.1 °F50 %29.77 in10.0 miWest (280°)20.7 mph27.6 mph0.00 inMostly Cloudy
2:54 PM39.4 °F18.1 °F42 %29.79 in10.0 miWNW (300°)21.9 mph32.2 mph0.00 inMostly Cloudy
3:54 PM37.9 °F18.0 °F45 %29.81 in10.0 miWest (280°)17.3 mph31.1 mph0.00 inMostly Cloudy
4:54 PM39.0 °F18.0 °F43 %29.83 in10.0 miWest (270°)20.7 mph31.1 mphMostly Cloudy
5:54 PM36.7 °F17.1 °F45 %29.85 in10.0 miWNW (290°)17.3 mph29.9 mphMostly Cloudy
6:54 PM35.1 °F16.0 °F46 %29.88 in10.0 miWest (280°)24.2 mph36.8 mphScattered Clouds
7:54 PM33.1 °F15.1 °F48 %29.89 in10.0 miWNW (290°)17.3 mph24.2 mphScattered Clouds
8:54 PM32.0 °F16.0 °F52 %29.90 in10.0 miWest (280°)11.5 mph19.6 mphScattered Clouds
9:54 PM30.9 °F17.1 °F57 %29.91 in9.0 miWest (260°)17.3 mph0.00 inSnowLight Snow
10:54 PM30.6 °F16.0 °F55 %29.91 in10.0 miWSW (250°)10.4 mph0.00 inMostly Cloudy
11:54 PM30.9 °F16.0 °F54 %29.90 in9.0 miWest (270°)9.2 mph0.00 inSnowLight Snow
Hourly data recorded from KSYR, located miles away from Syracuse, New York







STORIES FROM OUR PARTNERS